This is the latest recevied weather packets stored in our database for station/object N9ALD. If no packets are shown the sender has not sent any weather packets the latest 10 day(s).
| Time | Temp. | Humidity | Pressure | Rain* | Wind** | Luminosity | Snow |
|---|---|---|---|---|---|---|---|
| 1777454903 | 12.22° C | 97% | 1008.5 hPa | 1.78 mm | - | 0 W/m² | - |
| 1777454600 | 12.22° C | 97% | 1008.4 hPa | 0 mm | - | 0 W/m² | - |
| 1777454296 | 12.22° C | 97% | 1008.4 hPa | 0 mm | - | 0 W/m² | - |
| 1777453993 | 12.22° C | 96% | 1008.2 hPa | 1.27 mm | - | 0 W/m² | - |
| 1777453690 | 12.22° C | 96% | 1008.1 hPa | 4.32 mm | - | 0 W/m² | - |
| 1777453387 | 12.22° C | 96% | 1008.2 hPa | 4.83 mm | - | 0 W/m² | - |
| 1777453084 | 12.22° C | 96% | 1008.2 hPa | 3.05 mm | - | 0 W/m² | - |
| 1777452781 | 12.22° C | 96% | 1008.7 hPa | 3.05 mm | - | 0 W/m² | - |
| 1777452476 | 12.22° C | 96% | 1008.4 hPa | 6.1 mm | - | 0 W/m² | - |
| 1777452173 | 12.22° C | 96% | 1008.3 hPa | 4.32 mm | - | 0 W/m² | - |
| 1777451873 | 12.22° C | 96% | 1008.3 hPa | 12.7 mm | - | 0 W/m² | - |
| 1777451570 | 12.78° C | 96% | 1008.5 hPa | 24.64 mm | - | 0 W/m² | - |
| 1777451265 | 12.78° C | 95% | 1008.9 hPa | 14.99 mm | - | 0 W/m² | - |
| 1777450962 | 12.78° C | 95% | 1008.7 hPa | 4.83 mm | - | 0 W/m² | - |
| 1777450658 | 12.78° C | 95% | 1008.2 hPa | 1.78 mm | - | 0 W/m² | - |
| 1777450353 | 12.78° C | 95% | 1008.2 hPa | 3.05 mm | - | 0 W/m² | - |
| 1777450050 | 12.78° C | 95% | 1008.3 hPa | 1.27 mm | - | 0 W/m² | - |
| 1777449746 | 12.78° C | 95% | 1008.2 hPa | 0 mm | - | 0 W/m² | - |
| 1777449443 | 12.78° C | 95% | 1008.3 hPa | 0 mm | - | 0 W/m² | - |
| 1777449138 | 12.78° C | 95% | 1008.4 hPa | 0 mm | - | 0 W/m² | - |
| 1777448834 | 12.78° C | 95% | 1008.2 hPa | 0 mm | - | 0 W/m² | - |
| 1777448532 | 12.78° C | 94% | 1008.5 hPa | 0 mm | - | 0 W/m² | - |
| 1777448228 | 12.78° C | 94% | 1008.7 hPa | 0 mm | - | 0 W/m² | - |
| 1777447924 | 12.78° C | 94% | 1008.7 hPa | 0 mm | - | 0 W/m² | - |
| 1777447620 | 12.78° C | 94% | 1008.8 hPa | 1.78 mm | - | 0 W/m² | - |
* Rain latest hour (hover to see other rain measurements)
** Current wind speed in m/s (hover to see current wind gust speed)